New York Downtown Manhattan/w, NY

10:34 PM EDT on July 20, 2019 (GMT -0400)
New York Downtown Manhattan/w

Weather History for KJRB - May, 2019

Change the Weather History Date:

Monday, May 6, 2019

  Actual Average (WUND) Record (WUND)
Temperature  
Mean Temperature 60 °F -  
Max Temperature 70 °F - - (-1)
Min Temperature 51 °F - - (-1)
Degree Days  
Heating Degree Days 5    
Growing Degree Days 10 (Base 50)    
Moisture  
Dew Point 48 °F    
Average Humidity 71    
Maximum Humidity 94    
Minimum Humidity 49    
Precipitation  
Precipitation 0.01 in - - ()
Sea Level Pressure  
Sea Level Pressure 29.98 in    
Wind  
Wind Speed 9 mph (ESE)    
Max Wind Speed 17 mph    
Max Gust Speed 23 mph    
Visibility 10 miles    
Events Rain    
Averages and records for this station are not official NWS values.
T = Trace of Precipitation, MM = Missing Value Source: NWS Daily Summary

Daily Weather History Graph

Daily Weather History Graph

Search for Another Location

Airport or City:

Astronomy

May. 06, 2019 Rise Set
Actual Time 5:48 AM EDT 7:57 PM EDT
Civil Twilight 5:18 AM EDT 8:27 PM EDT
Nautical Twilight 4:41 AM EDT 9:04 PM EDT
Astronomical Twilight 4:01 AM EDT 9:45 PM EDT
Moon 7:09 AM EDT (5/6) 9:52 PM EDT (5/6)
Length of Visible Light 15h 08m
Length of Day
14h 08m
Waxing Crescent, 3% of the Moon is Illuminated
May 6
Waxing Crescent
May 11
First Quarter
May 18
Full
May 26
Last Quarter
Jun 3
New

Hourly Weather History & Observations

Time (EDT) Temp. Dew Point Humidity Pressure Visibility Wind Dir Wind Speed Gust Speed Precip Events Conditions
12:17 AM 51.8 °F 50.0 °F 94% 29.83 in 10.0 mi NNE 12.7 mph 20.7 mph 0.00 in Rain Light Rain
12:56 AM 52.0 °F 50.0 °F 93% 29.84 in 10.0 mi NE 17.3 mph 21.9 mph 0.00 in   Overcast
1:56 AM 52.0 °F 48.0 °F 86% 29.87 in 10.0 mi NE 13.8 mph 23.0 mph N/A   Overcast
2:56 AM 53.1 °F 48.0 °F 83% 29.86 in 10.0 mi NE 13.8 mph 17.3 mph N/A   Overcast
3:56 AM 53.1 °F 48.0 °F 83% 29.87 in 10.0 mi NE 9.2 mph - N/A   Scattered Clouds
4:06 AM 53.6 °F 46.4 °F 77% 29.87 in 10.0 mi NNE 6.9 mph 18.4 mph N/A   Mostly Cloudy
4:15 AM 53.6 °F 46.4 °F 77% 29.86 in 10.0 mi NNE 10.4 mph 18.4 mph N/A   Partly Cloudy
4:56 AM 54.0 °F 46.0 °F 75% 29.88 in 10.0 mi Variable 3.5 mph - N/A   Clear
5:56 AM 53.1 °F 48.0 °F 83% 29.91 in 10.0 mi Calm Calm - N/A   Clear
6:56 AM 53.1 °F 48.0 °F 83% 29.94 in 10.0 mi Variable 3.5 mph - N/A   Clear
7:56 AM 55.0 °F 48.0 °F 77% 29.96 in 10.0 mi NE 6.9 mph 18.4 mph N/A   Mostly Cloudy
8:56 AM 57.9 °F 46.0 °F 65% 29.97 in 10.0 mi ENE 11.5 mph - N/A   Clear
9:56 AM 62.1 °F 46.9 °F 58% 29.97 in 7.0 mi Variable 5.8 mph - N/A   Clear
10:56 AM 64.9 °F 46.9 °F 52% 30.00 in 10.0 mi Calm Calm - N/A   Clear
11:56 AM 66.9 °F 48.0 °F 51% 30.00 in 10.0 mi Variable 5.8 mph - 0.01 in   Clear
12:56 PM 66.9 °F 48.0 °F 51% 29.99 in 10.0 mi South 5.8 mph - N/A   Partly Cloudy
1:56 PM 66.9 °F 50.0 °F 54% 29.99 in 10.0 mi SW 5.8 mph - N/A   Clear
2:56 PM 69.1 °F 48.9 °F 49% 29.99 in 10.0 mi SSE 8.1 mph - N/A   Mostly Cloudy
3:56 PM 64.9 °F 48.0 °F 54% 30.00 in 10.0 mi South 8.1 mph - N/A   Overcast
4:56 PM 62.1 °F 48.9 °F 62% 30.03 in 10.0 mi South 6.9 mph - 0.00 in Rain Light Rain
5:56 PM 59.0 °F 48.9 °F 69% 30.05 in 10.0 mi SSE 6.9 mph - 0.00 in   Overcast
6:56 PM 59.0 °F 48.0 °F 67% 30.06 in 10.0 mi SE 8.1 mph - N/A   Overcast
7:56 PM 57.9 °F 48.0 °F 70% 30.09 in 10.0 mi South 8.1 mph - N/A   Mostly Cloudy
8:56 PM 57.0 °F 48.0 °F 72% 30.12 in 10.0 mi South 6.9 mph - N/A   Overcast
9:56 PM 57.0 °F 48.0 °F 72% 30.14 in 10.0 mi Calm Calm - N/A   Mostly Cloudy
10:56 PM 57.0 °F 48.0 °F 72% 30.14 in 10.0 mi SSE 3.5 mph - N/A   Scattered Clouds
11:56 PM 55.9 °F 48.0 °F 75% 30.16 in 10.0 mi South 5.8 mph - N/A   Overcast